Location: Casilda
(33.0440°S, 61.1680°W)
Time: 22:20:50
(UTC-03:00)

ISS - Pass Details

Date: 07 July 2020
Orbit: 417 x 421 km, 51.6° (Epoch: 08 July)

Event Time Altitude Azimuth Distance (km) Brightness Sun altitude
Rises 18:41:10 0° 209° (SSW) 2,403 0.2 -6.4°
Reaches altitude 10° 18:44:19 10° 178° (S) 1,530 -1.1 -7.0°
Maximum altitude 18:45:53 13° 151° (SSE) 1,378 -1.6 -7.3°
Drops below altitude 10° 18:47:27 10° 123° (ESE) 1,524 -1.6 -7.6°
Enters shadow 18:47:35 10° 122° (ESE) 1,547 -1.5 -7.7°
